Terminal Aerodrome Forecast
Issued by NWS

Home | Current Version | Previous Version | Text Only | Print | Product List | Glossary On
Versions: 1 2 3 4 5 6 7 8 9 10 11 12 13 14 15 16 17 18 19 20 21 22 23 24 25 26
000
FTUS46 KOTX 210535
TAFPUW
TAF
KPUW 210535Z 2106/2206 27003KT P6SM SCT150
     FM211800 27006KT P6SM FEW070 FEW200
     FM220000 30007KT P6SM SCT090 SCT200=

USA.gov is the U.S. government's official web portal to all federal, state and local government web resources and services.